Regional Weather Roundup
Issued by NWS

Home | Current Version | Previous Version | Text Only | Print | Product List | Glossary On
Versions: 1 2 3 4 5 6 7 8 9 10 11 12 13 14 15 16 17 18 19 20 21 22 23 24 25 26 27 28 29 30 31 32 33 34 35 36 37 38 39 40 41 42 43 44 45 46 47 48 49 50
000
ASUS44 KJAN 291410
RWRMS

MISSISSIPPI HOURLY WEATHER ROUNDUP
NATIONAL WEATHER SERVICE JACKSON MS
900 AM CDT THU JUN 29 2017

NOTE: "FAIR: INDICATES FEW OR NO CLOUDS BELOW 12,000 FEET WITH NO
SIGNIFICANT WEATHER AND/OR OBSTRUCTIONS TO VISIBILITY.

MSZ001>002-007>008-010>013-018>021-025>028-034>036-291500-
NORTHWEST MISSISSIPPI

CITY           SKY/WX    TMP DP  RH WIND       PRES   REMARKS
BATESVILLE     FAIR      77  71  80 SE7       30.02S
CLARKSDALE       N/A     77  77 100 S9        30.00S
CLEVELAND      PTSUNNY   79  77  94 S10       29.99S
GREENWOOD      CLOUDY    77  73  87 S8        30.00F
GREENVILLE     MOSUNNY   77  71  82 S10       29.98S
OLIVE BRANCH   PTSUNNY  N/A N/A N/A S9        30.01S
OXFORD         FAIR      73  68  83 S10       30.04F
TUNICA           N/A     77  70  78 S8        30.00S
WINONA         CLOUDY    75  72  91 S6        30.02S
$$

MSZ003>006-009-014>017-022>024-029>033-037>039-291500-
NORTHEAST MISSISSIPPI

CITY           SKY/WX    TMP DP  RH WIND       PRES   REMARKS
COLUMBUS AFB   CLOUDY    76  74  93 SE9       30.05R
CORINTH        CLOUDY    77  70  78 S7G13     30.05S
GOLDN TRIANGLE CLOUDY    75  68  78 SE9       30.02S
STARKVILLE     CLOUDY    77  72  83 S10       30.06R
TUPELO         CLOUDY    75  70  84 E7        30.05S
$$

MSZ040-058-291500-
CENTRAL MISSISSIPPI

CITY           SKY/WX    TMP DP  RH WIND       PRES   REMARKS
JACKSON INTL   CLOUDY    75  71  87 SE8       30.01S
JACKSON HAWKNS CLOUDY    76  71  85 SE9       30.01S
MADISON        CLOUDY    73  70  88 SE6       30.01R
MERIDIAN KEY   LGT RAIN  75  73  93 S5        30.07R
MERIDIAN NAS   RAIN      73  68  84 SW3       30.08R
RAYMOND        FAIR      77  72  83 MISG      30.00R
VICKSBURG VKS  CLOUDY    77  72  83 SE6       29.96S
$$

MSZ059>079-291500-
SOUTH MISSISSIPPI

CITY           SKY/WX    TMP DP  RH WIND       PRES   REMARKS
COLUMBIA       PTSUNNY   75  73  94 S10       30.06R
HATTIESBURG    LGT RAIN  73  71  93 S9        30.05R
LAUREL         CLOUDY    72  72 100 S5        30.06R
MCCOMB         LGT RAIN  75  72  90 S7        30.02R
NATCHEZ        CLOUDY    76  72  87 S9        29.99R
PINE BELT      PTSUNNY   72  70  94 S12       30.06S
$$

MSZ080>082-291500-
COASTAL MISSISSIPPI

CITY           SKY/WX    TMP DP  RH WIND       PRES   REMARKS
BAY ST LOUIS   PTSUNNY   73  72  94 CALM      30.03S
BILOXI         RAIN      73  72  95 SE3       30.04R FOG
PASCAGOULA     RAIN      76  72  87 CALM      30.05R FOG
GULFPORT       HVY RAIN  74  73  97 E6        30.03R FOG
$$

LAZ007>009-015>016-023>026-291500-
NORTHEAST LOUISIANA

CITY           SKY/WX    TMP DP  RH WIND       PRES   REMARKS
BASTROP        CLOUDY    76  75  98 SE3       29.98S
TALLULAH/VBURG CLOUDY    78  72  81 SE8       29.99R
VIDALIA        CLOUDY    76  74  91 S6        29.97S
$$



USA.gov is the U.S. government's official web portal to all federal, state and local government web resources and services.